Weather History for Fayetteville, AR

Change the Weather History Date:

Wednesday, February 6, 2013

  Actual Average Record
Temperature  
Mean Temperature 46 °F 38 °F  
Max Temperature 66 °F 49 °F 66 °F (2013)
Min Temperature 26 °F 26 °F -3 °F (1959)
Degree Days  
Heating Degree Days 19 27  
Month to date heating degree days 139 167  
Since 1 July heating degree days 2472 2761  
Moisture  
Dew Point 34 °F    
Average Humidity 68    
Maximum Humidity 100    
Minimum Humidity 36    
Precipitation  
Precipitation 0.00 in 0.09 in 1.91 in (1999)
Month to date precipitation 0.06 0.53  
Year to date precipitation 3.09 3.37  
Sea Level Pressure  
Sea Level Pressure 30.05 in    
Wind  
Wind Speed 6 mph (SSE)    
Max Wind Speed 23 mph    
Max Gust Speed 29 mph    
Visibility 10 miles    
Events      
T = Trace of Precipitation, MM = Missing Value Source: NWS Daily Summary

Daily Weather History Graph

Daily Weather History Graph

Search for Another Location

Airport:

Trip Planner

Search our weather history database for the weather conditions in past years. The results will help you decide how hot, cold, wet, or windy it might be!

Date:

Astronomy

Feb. 06, 2013 Rise Set
Actual Time 7:12 AM CST 5:49 PM CST
Civil Twilight 6:46 AM CST 6:15 PM CST
Nautical Twilight 6:15 AM CST 6:46 PM CST
Astronomical Twilight 5:45 AM CST 7:16 PM CST
Moon 3:53 AM CST (2/6) 2:11 PM CST (2/6)
Length of Visible Light 11h 29m
Length of Day
10h 36m
Waning Crescent, 17% of the Moon is Illuminated
Feb 6
Waning Crescent
Feb 10
New
Feb 17
First Quarter
Feb 25
Full
Mar 4
Last Quarter

Hourly Weather History & Observations

Time (CST) Temp. Windchill Dew Point Humidity Pressure Visibility Wind Dir Wind Speed Gust Speed Precip Events Conditions
12:53 AM 30.2 °F - 28.4 °F 93% 30.09 in 10.0 mi Calm Calm - N/A   Clear
1:53 AM 30.0 °F - 28.9 °F 96% 30.09 in 10.0 mi Calm Calm - N/A   Clear
2:53 AM 28.9 °F - 27.0 °F 92% 30.09 in 9.0 mi Calm Calm - N/A   Clear
3:53 AM 28.0 °F - 27.0 °F 96% 30.08 in 10.0 mi Calm Calm - N/A   Clear
4:53 AM 27.0 °F 23.0 °F 26.1 °F 96% 30.09 in 10.0 mi South 3.5 mph - N/A   Clear
5:53 AM 28.0 °F - 27.0 °F 96% 30.11 in 10.0 mi Calm Calm - N/A   Clear
6:53 AM 27.0 °F - 26.1 °F 96% 30.13 in 10.0 mi Calm Calm - N/A   Clear
7:53 AM 30.0 °F - 28.0 °F 92% 30.13 in 10.0 mi Calm Calm - N/A   Clear
8:53 AM 36.0 °F - 33.1 °F 89% 30.13 in 10.0 mi Calm Calm - N/A   Clear
9:53 AM 53.1 °F - 37.0 °F 55% 30.11 in 10.0 mi Calm Calm - N/A   Clear
10:53 AM 63.0 °F - 39.0 °F 41% 30.10 in 10.0 mi South 17.3 mph 23.0 mph N/A   Clear
11:53 AM 61.0 °F - 37.9 °F 42% 30.08 in 10.0 mi South 12.7 mph - N/A   Clear
12:53 PM 64.0 °F - 39.0 °F 40% 30.04 in 10.0 mi SSE 11.5 mph 20.7 mph N/A   Clear
1:53 PM 63.0 °F - 37.0 °F 38% 30.01 in 10.0 mi SSE 12.7 mph 26.5 mph N/A   Clear
2:53 PM 61.0 °F - 39.0 °F 44% 30.01 in 10.0 mi South 13.8 mph - N/A   Clear
3:53 PM 61.0 °F - 34.0 °F 36% 29.99 in 10.0 mi South 16.1 mph - N/A   Scattered Clouds
4:53 PM 57.9 °F - 35.1 °F 42% 29.98 in 10.0 mi SSE 13.8 mph 24.2 mph N/A   Mostly Cloudy
5:53 PM 55.0 °F - 37.0 °F 51% 30.00 in 10.0 mi SSE 8.1 mph - N/A   Overcast
6:53 PM 54.0 °F - 36.0 °F 51% 29.99 in 10.0 mi ESE 5.8 mph - N/A   Partly Cloudy
7:53 PM 50.0 °F - 37.0 °F 61% 29.98 in 10.0 mi East 5.8 mph - N/A   Clear
8:53 PM 51.1 °F - 37.9 °F 61% 29.98 in 10.0 mi SE 6.9 mph - N/A   Clear
9:53 PM 48.9 °F - 39.0 °F 69% 29.98 in 10.0 mi South 3.5 mph - N/A   Clear
10:53 PM 48.9 °F - 39.0 °F 69% 29.96 in 10.0 mi SE 3.5 mph - N/A   Clear
11:53 PM 51.1 °F - 41.0 °F 68% 29.95 in 10.0 mi SSE 11.5 mph - N/A   Clear